FLOCK 3P-81 (42043 NORAD) Tracking and Keplerian Element Data

This shows tracking and keplerian element data for the satellite.

Feedback or suggestion? Click here.




ElementValue
Catalog42043
NameFLOCK 3P-81
Epoch Orbit20577
Epoch Day307.17170495
Epoch Year2020
RAAN13.2171
Inclination97.3544
Eccentricity0.000828
Argument of Perigee163.4869
Mean Anonmoly196.6641
Mean Motion15.26674248
Decay Rate5.292E-05
L11 42043U 17008CZ 20307.17170495 .00005292 00000-0 20428-3 0 9992
L22 42043 97.3544 13.2171 0008280 163.4869 196.6641 15.26674248205776



Live tracking and technical data element details for FLOCK 3P-81 (NORAD 42043). FLOCK 3P-81 can be tracked NOW for your location showing map with azimuth and elevation plus other details from your city location.







IsCatalogInMostPopularTable: catalog: 42043, numindb: 599
Update: records affected: 1



GetName: 42043 FLOCK 3P-81

Hit Count: updated at: Wed, 04 Dec 2024 11:46:03 GMT